UGATUSAT

Satellite information

Favourite Embed

Satellite Type and Status

PAYLOADIN ORBIT

Key statistics

Satellite UGATUSAT at a glance.

Uptime

5712

Days in orbit

Revolutions

≈ 14.2

Per day

Orbit

SSO

Sun Synchronous Orbit

Inclination

98.7

Latest

Satellite identification and parameters

Extended collection of information and parameters for UGATUSAT.

Object identification

Identified? True

Debris? False

Object name: UGATUSAT

International designator: 2009-049E

Object number (NORAD): 35869

Object ID (CCSDS): 35869

Country: COMMONWEALTH OF INDEPENDENT STATES (CIS)

Current information (Y/N): Y

RCS size: MEDIUM

Orbital parameters

Period: 101.189 minutes

Inclination: 98.6836 deg

SMA: 7193.086 km

Apoapsis: 818.744 km

Periapsis: 811.157 km

RAAN: 88.9398 deg

Eccentricy: 0.0005274

Argument of periapsis: 46.3974 deg

Mean anomaly: 313.7641 deg

Mean motion: 14.23081928 rev/day

Mean motion (dot): 0.00000129 rev/day2

B* drag term: 0.000076387 1/REarth

Two-line elements (TLE)

Creation date: May 8, 2025, 3:01 a.m.

Reference frame: TEME

Reference center: EARTH

Epoch: May 7, 2025, 8:13 p.m. UTC

TLE line 0: 0 UGATUSAT

TLE line 1: 1 35869U 09049E 25127.84270683 .00000129 00000-0 76387-4 0 9995

TLE line 2: 2 35869 98.6836 88.9398 0005274 46.3974 313.7641 14.23081928811776

Live tracking on map

Real-time ground track for satellite UGATUSAT.

In-orbit conjunctions

There are no conjunctions computed for UGATUSAT, at the moment. Check back to stay up to date, as we update our databases every day.

Go to all conjunctions

Associated space launch

Russian meteorology satellite

UGATUSAT was lifted into orbit during the mission ‘Soyuz 2.1b/Fregat | Meteor-M 1’, on board a Soyuz 2.1b/Fregat space rocket.

The launch took place on Sept. 17, 2009, 3:55 p.m. from 31/6.

For more information about the launch, click the button.

Launch to space Soyuz 2.1b/Fregat | Meteor-M 1
Soyuz 2.1b/Fregat | Meteor-M 1

Agency: N/A

Status: Launch Successful

Launch date: Sept. 17, 2009, 3:55 p.m. UTC

Rocket: Soyuz 2.1b/Fregat

Launch pad: 31/6

Location: Baikonur Cosmodrome, Republic of Kazakhstan

...

Latest news about this satellite

There are no fresh news available about this satellite. Check back as we update our databases every day.


Newsletter sign-up

Weekly statistics, charts and insights to help you stay on top of the space industry.